Regional Weather Roundup
Issued by NWS

Home | Current Version | Previous Version | Text Only | Print | Product List | Glossary Off
Versions: 1 2 3 4 5 6 7 8 9 10 11 12 13 14 15 16 17 18 19 20 21 22 23 24 25 26 27 28 29 30 31 32 33 34 35 36 37 38 39 40 41 42 43 44 45 46 47 48 49 50

000
ASUS43 KLOT 171606
RWRIL

ILLINOIS REGIONAL WEATHER ROUNDUP
NATIONAL WEATHER SERVICE CHICAGO/ROMEOVILLE IL
1100 AM CDT WED SEP 17 2014

NOTE: "FAIR" INDICATES FEW OR NO CLOUDS BELOW 12,000 FEET WITH NO
SIGNIFICANT WEATHER AND/OR OBSTRUCTIONS TO VISIBILITY.

* THESE STATIONS ARE NOT UNDER NWS QUALITY CONTROL. THEY ALSO MAY NOT
  REPORT WEATHER SUCH AS PRECIPITATION OR FOG.

ILZ001-002-007-009-015-016-024-171700-
NORTHWEST ILLINOIS

CITY           SKY/WX    TMP DP  RH WIND       PRES   REMARKS
MOLINE         CLOUDY    63  52  67 S8        30.02S
STERLING*      SUNNY     66  52  59 W5        30.03S
$$

ILZ003-004-008-010-011-017-018-171700-
NORTH CENTRAL ILLINOIS

CITY           SKY/WX    TMP DP  RH WIND       PRES   REMARKS
ROCKFORD       PTSUNNY   62  48  60 S3        30.05S
FREEPORT*      MOSUNNY   63  49  62 SW6       30.04S
ROCHELLE*      MOSUNNY   63  45  52 CALM      30.03F
DE KALB*       CLOUDY    60  47  61 SW5       30.04S
PERU*          SUNNY     64  52  63 CALM      30.04S
$$

ILZ005-006-012>014-019>023-171700-
NORTHEAST ILLINOIS

CITY           SKY/WX    TMP DP  RH WIND       PRES   REMARKS
CHICAGO-OHARE  MOSUNNY   62  43  49 VRB3      30.03S
CHICAGO-MIDWAY MOSUNNY   65  44  46 VRB5      30.03S
AURORA         MOSUNNY   64  46  52 S7        30.03F
LANSING*       SUNNY     64  47  53 CALM      30.04S
JOLIET*        SUNNY     63  47  57 CALM      30.04F
WAUKEGAN       SUNNY     65  45  48 VRB3      30.02S
DUPAGE AIRPORT SUNNY     65  45  48 VRB6      30.03S
KANKAKEE*      SUNNY     64  54  69 CALM      30.05S
WHEELING       SUNNY     65  44  46 S5        30.04S
MORRIS*        SUNNY     64  50  60 CALM      30.03F
ROMEOVILLE*    SUNNY     64  46  52 S3        30.04S
NORTHERLY ISL    N/A     64  40  41 SW5         N/A
$$

LMZ740>746-171700-
SOUTHERN LAKE MICHIGAN

STATION/POSITION SKY/WX   TEMP    WIND        PRES    VSBY  WAVE
                          AIR SEA DIR/SP/G                  HT/PER
                          (F)     (DEG/KT/KT) (MB)    (MI)  (FT/S)
SOUTHERN BUOY              61 65  270/  6/  8 1016.9S         1/ 4
WAUKEGAN HARBOR            62     240/  3/  5   N/A
HARRISON CRIB              61     170/  2/  3   N/A
BURNHAM HARBOR             65     190/  6/  7   N/A
CALUMET HARBOR             63     200/  4/  5 1015.9R
MICHIGAN CITY              62     260/  6/  7   N/A
MICHIGAN CITY 6N           61 65  250/  6/  6   N/A           1
ST. JOSEPH                 60 66  210/  6/  8   N/A           1/ 3
$$

ILZ025>027-034>036-040-047-049-050-058-095>099-171700-
WEST-CENTRAL ILLINOIS

CITY           SKY/WX    TMP DP  RH WIND       PRES   REMARKS
QUINCY         CLOUDY    60  54  80 S9        30.02S
GALESBURG*     CLOUDY    61  54  78 S7        30.03S
MACOMB*        CLOUDY    59  54  85 S7        30.05S
JACKSONVILLE*  PTSUNNY   63  53  71 S6        30.05S
PITTSFIELD*    CLOUDY    60  54  81 SE5       30.04R
$$

ILZ028>032-037-038-041>044-048-051>054-059>061-171700-
CENTRAL ILLINOIS

CITY           SKY/WX    TMP DP  RH WIND       PRES   REMARKS
DECATUR        PTSUNNY   62  51  67 SW6       30.07R
PEORIA         CLOUDY    62  53  72 S7        30.05S
LACON*         PTSUNNY   62  50  65 SW8       30.04R
LINCOLN*       CLOUDY    64  53  69 S5        30.04S
SPRINGFIELD    CLOUDY    62  52  69 S7        30.06S
TAYLORVILLE    PTSUNNY   63  52  67 S12       30.06R
$$

ILZ033-039-045-046-055>057-062-063-171700-
EAST-CENTRAL ILLINOIS

CITY           SKY/WX    TMP DP  RH WIND       PRES   REMARKS
CHAMPAIGN      MOSUNNY   64  51  62 S8        30.06S
DANVILLE*      PTSUNNY   62  52  70 CALM      30.04R
RANTOUL*       MOSUNNY   65  48  54 SE3       30.06S
MATTOON        PTSUNNY   62  52  69 S6        30.06R
PARIS*         MOSUNNY   62  53  71 CALM      30.07S
$$

ILZ079-100>102-171700-
SOUTHWEST ILLINOIS

CITY           SKY/WX    TMP DP  RH WIND       PRES   REMARKS
ALTON          CLOUDY    61  54  77 S9        30.06F
BELLEVILLE     CLOUDY    59  55  84 VRB3      30.05F
CAHOKIA*       LGT RAIN  59  53  80 SE9       30.05F
SPARTA*        LGT RAIN  57  54  91 SE6       30.07F
$$

ILZ064>066-069>071-074>076-080>082-084>086-088>090-092>094-171700-
SOUTH-CENTRAL ILLINOIS

CITY           SKY/WX    TMP DP  RH WIND       PRES   REMARKS
CARBONDALE     LGT RAIN  60  54  80 W3        30.10R
CAIRO*         CLOUDY    64  60  85 E5        30.06F
EFFINGHAM*     RAIN      60  52  74 S5        30.07S
MT. VERNON     CLOUDY    63  54  72 SE5       30.09R
CENTRALIA*     PTSUNNY   62  52  70 S7        30.08R
SALEM*         PTSUNNY   63  56  77 S5        30.08R
METROPOLIS*    CLOUDY    64  56  77 CALM      30.07R
$$

ILZ067-068-072-073-078-083-087-091-171700-
SOUTHEAST ILLINOIS

CITY           SKY/WX    TMP DP  RH WIND       PRES   REMARKS
LAWRENCEVILLE  MOSUNNY   64  52  64 E7        30.05F
FLORA*         MOSUNNY   61  52  71 S3        30.08R
FAIRFIELD*     PTSUNNY  N/A N/A N/A S5        30.06F
ROBINSON*      MOSUNNY   63  55  73 S3        30.07R
CARMI*         MOSUNNY   66  54  65 SE5       30.06R
$$

ABBREVIATIONS USED IN REMARKS
   TC - TEMPERATURE IN CELSIUS
  WCI - WIND CHILL INDEX
   HX - HEAT INDEX
  VSB - VISIBILITY
$$




USA.gov is the U.S. government's official web portal to all federal, state and local government web resources and services.